Powrót do katalogu

STARLINK-4495

AktywnyŁącznośćVLEO
NORAD 53552·PAYLOAD·🇺🇸 United States

Wystrzelony Aug 19, 2022 z Cape Canaveral Space Force Station

Loading…

Następne Przeloty (najbliższe 24 godziny)

TLE

ŚwieżeSource: CelesTrak SupGP

Epoka: Sep 14, 2026, 20:31 UTC

1 53552C 22101AB  26257.85534722 -.00008472  00000+0 -53133-3 0  2571
2 53552  53.1592 294.2964 0001305  84.8337 315.0537 15.08835330    16

Śledź STARLINK-4495 w czasie rzeczywistym z AllMySat

Download on the App Store